Temp
80 90 95 90 79 81 77 78 84 82 81 86 87 84 82 84 79 74 89 91 91 92 93 88 78 79 79 78 78 78 78 78 78 77 77 77 77 77 77 76 76 77 77 77 78 78 78 79 79
94 91 92 92 77 74 79 82 80 84 85 87 85 84 82 79 86 88 90 91 92 93 90 91 79 78 78 78 77 77 78 78 77 77 77 77 77 76 76 76 76 77 77 77 78 78 79 78 79
93 94 88 85 80 74 76 81 83 85 87 86 84 86 84 82 84 88 92 91 92 92 92 90 79 78 78 78 77 77 77 77 78 77 77 77 77 76 76 76 76 77 77 77 78 77 79 78 79
92 92 91 78 76 79 79 84 86 85 86 88 88 80 84 88 87 90 91 92 91 93 93 86 76 77 77 77 77 77 77 77 77 77 77 77 77 76 75 76 75 76 76 77 77 78 77 79 78
94 91 80 76 77 80 85 87 86 84 87 87 85 81 81 86 88 90 90 90 90 92 91 91 76 76 77 77 78 77 77 77 76 76 77 77 76 76 76 75 75 76 76 76 76 77 77 77 78
87 88 76 74 77 81 85 88 86 86 88 86 82 82 84 89 88 88 90 90 91 89 87 87 80 75 74 74 74 74 73 74 74 73 73 74 75 75 75 74 75 75 75 76 76 76 76 75 77
83 82 76 78 77 78 82 88 85 86 86 86 87 79 84 85 88 87 88 88 88 88 87 86 85 83 74 74 72 72 72 72 71 71 72 73 73 74 75 75 74 75 75 75 75 75 75 75 75
88 84 77 78 76 77 85 85 88 86 85 87 87 80 81 87 86 87 89 89 88 88 88 86 85 86 83 82 76 71 71 70 69 70 71 70 71 72 74 73 73 75 74 74 75 75 75 75 75
91 78 75 77 77 81 88 84 89 88 86 84 86 85 86 86 87 87 87 87 89 88 87 86 85 83 81 80 80 73 73 71 70 70 70 71 76 77 78 75 74 73 74 74 74 75 74 74 74
83 77 77 84 86 84 88 86 88 82 82 81 82 84 83 85 86 86 85 86 84 84 85 85 80 78 78 80 78 77 76 73 70 71 69 71 73 75 76 74 73 72 72 73 73 74 74 75 78
84 76 84 86 88 89 87 87 89 83 82 85 84 87 83 84 84 85 86 84 82 83 84 84 78 77 77 79 79 79 73 74 73 70 71 69 70 74 74 78 78 77 75 77 77 79 80 80 79
78 84 85 87 89 86 83 87 83 84 87 88 89 88 86 83 83 84 83 83 83 82 81 80 79 76 75 77 78 75 71 75 72 76 71 72 74 73 69 71 77 76 78 75 75 80 79 76 79
81 84 86 88 87 87 85 83 83 85 89 88 88 86 84 84 84 83 82 82 81 80 80 79 78 76 74 73 76 73 73 76 75 74 72 74 73 67 71 72 72 75 77 75 74 78 77 75 78
86 85 85 87 87 85 82 82 80 87 87 85 84 84 84 84 83 81 79 79 78 79 78 78 77 76 76 74 73 72 74 75 77 74 74 73 70 67 69 73 68 69 74 77 79 79 76 77 80
85 78 82 83 85 82 83 77 77 88 84 82 81 83 84 82 83 80 80 77 78 80 77 77 76 77 75 74 75 74 75 73 75 76 75 74 73 70 69 71 74 76 75 75 77 76 77 77 80
79 80 73 83 82 81 79 68 79 87 80 80 82 82 81 80 81 81 79 78 79 78 75 77 78 77 76 75 75 75 74 73 70 71 74 75 74 73 71 69 70 72 74 75 79 80 79 80 78
77 69 73 76 83 80 78 74 82 87 83 81 82 81 80 79 78 78 79 79 78 77 75 76 76 77 76 75 77 75 74 74 71 69 69 73 74 75 72 71 72 73 74 74 77 79 78 77 78
69 70 73 71 79 78 77 76 81 85 84 80 81 81 79 78 77 79 78 79 78 77 76 76 77 76 75 78 77 74 71 71 69 66 64 70 71 74 73 72 72 73 74 73 73 76 79 79 79
77 72 71 76 80 75 75 76 79 83 84 83 81 79 78 77 80 79 78 78 78 76 75 76 75 76 75 77 77 73 70 69 68 66 64 63 71 73 71 74 73 74 73 73 73 74 75 75 77
74 71 71 76 78 75 74 74 79 82 83 84 82 79 78 78 78 77 77 77 77 76 75 76 76 76 75 77 75 74 72 74 66 63 63 66 68 72 70 71 72 74 73 72 73 73 74 73 74
73 70 70 69 75 76 73 70 76 80 83 84 82 83 81 78 76 75 75 76 78 76 75 76 76 76 75 75 74 71 71 73 68 65 65 64 66 70 71 73 74 74 76 74 73 75 74 72 69
68 76 73 71 68 63 73 59 71 77 79 82 82 80 80 79 78 77 76 75 77 78 78 77 77 75 77 76 76 72 68 71 70 68 68 65 70 66 67 71 73 74 77 71 71 73 74 74 66
71 78 74 72 68 67 68 63 70 77 74 79 83 83 81 80 78 77 77 77 79 79 78 79 77 77 76 76 74 76 73 69 71 72 68 70 69 70 70 69 71 70 69 70 72 71 73 75 64
79 73 71 71 69 57 67 66 68 75 75 79 83 83 81 79 79 79 78 79 79 80 79 78 77 76 77 77 75 73 67 68 64 65 67 69 68 68 69 69 67 71 71 71 72 73 72 71 71
75 68 58 55 56 55 67 63 68 77 81 82 82 84 80 79 79 78 77 78 78 78 78 78 77 76 77 77 76 75 73 70 65 64 63 65 64 68 66 66 69 69 71 71 72 72 72 71 69
71 69 61 48 52 59 66 59 71 80 83 82 82 82 80 78 79 78 78 78 79 78 78 78 77 77 77 78 76 76 75 77 67 71 66 65 66 63 66 65 70 70 73 70 73 72 69 69 67
71 65 75 64 66 59 65 69 76 81 81 80 79 77 76 77 77 78 79 79 79 78 78 78 77 78 78 77 76 76 76 75 74 72 73 71 66 67 71 69 67 71 70 69 72 70 70 68 65
76 78 62 65 51 49 61 62 67 73 76 77 76 76 75 77 78 79 79 78 80 79 79 78 79 78 78 78 77 77 76 77 77 76 73 73 72 68 68 70 70 72 73 72 70 69 72 69 67
71 69 69 69 67 55 53 62 77 75 78 78 80 78 76 77 79 80 80 80 80 80 80 78 79 78 78 78 77 76 77 77 77 77 77 75 71 74 69 63 63 64 69 71 71 70 66 65 65
77 71 69 62 58 64 63 64 81 80 81 81 81 79 80 80 81 82 81 80 80 79 80 78 78 80 79 79 78 76 77 77 76 77 77 77 75 74 74 68 64 63 63 67 69 71 70 71 67
MSLP
1014.17 1013.65 1012.93 1011.96 1010.33 1008.31 1006.34 1006.40 1007.17 1006.95 1007.63 1008.64 1008.98 1009.24 1009.27 1009.63 1009.87 1010.49 1012.20 1012.61 1013.07 1013.04 1013.39 1014.22 1014.93 1015.17 1015.30 1015.43 1015.51 1015.42 1015.50 1015.72 1015.85 1016.00 1016.04 1016.08 1016.09 1016.04 1015.95 1015.97 1015.94 1015.83 1015.78 1015.71 1015.64 1015.64 1015.73 1015.60 1015.57
1013.03 1013.10 1012.42 1010.11 1008.57 1006.29 1005.41 1006.68 1006.48 1006.91 1007.92 1008.77 1009.31 1009.61 1009.87 1009.54 1010.68 1010.99 1011.63 1012.63 1012.91 1013.04 1013.61 1013.81 1014.41 1014.91 1015.08 1015.14 1015.33 1015.45 1015.50 1015.54 1015.59 1015.68 1015.77 1015.80 1015.86 1015.86 1015.74 1015.73 1015.74 1015.66 1015.64 1015.54 1015.45 1015.40 1015.46 1015.49 1015.39
1012.83 1012.53 1010.32 1008.59 1007.17 1006.11 1005.93 1006.43 1006.68 1007.33 1008.17 1008.45 1008.71 1009.62 1009.72 1010.01 1011.18 1011.30 1011.91 1012.60 1012.81 1013.04 1013.30 1013.76 1014.42 1014.73 1014.84 1015.01 1015.13 1015.23 1015.26 1015.33 1015.38 1015.44 1015.45 1015.41 1015.39 1015.42 1015.41 1015.45 1015.45 1015.39 1015.32 1015.28 1015.27 1015.19 1015.23 1015.25 1015.22
1012.10 1011.23 1010.09 1008.42 1006.39 1006.62 1007.08 1006.72 1006.77 1007.09 1007.92 1008.36 1008.49 1009.09 1010.37 1011.01 1011.27 1011.70 1012.23 1012.53 1012.70 1012.70 1013.13 1013.71 1014.57 1014.80 1014.80 1014.88 1014.91 1014.90 1014.96 1015.03 1015.06 1015.13 1015.11 1015.05 1014.95 1015.01 1015.07 1015.10 1015.17 1015.14 1015.12 1015.09 1015.06 1014.97 1015.09 1014.98 1015.08
1011.48 1009.87 1008.32 1007.53 1006.78 1007.13 1007.08 1007.04 1007.14 1006.79 1006.97 1007.60 1008.94 1008.86 1010.04 1011.41 1011.85 1012.14 1012.37 1012.58 1012.70 1012.66 1013.11 1013.44 1014.43 1014.65 1014.64 1014.64 1014.65 1014.75 1014.78 1014.78 1014.84 1014.81 1014.69 1014.55 1014.40 1014.42 1014.56 1014.66 1014.76 1014.84 1014.93 1015.01 1014.96 1014.91 1015.04 1014.91 1014.90
1009.86 1009.36 1007.76 1006.43 1006.08 1006.85 1006.98 1007.12 1007.14 1006.91 1006.86 1007.85 1008.80 1009.02 1009.67 1011.10 1011.81 1012.20 1012.43 1012.48 1012.77 1012.92 1013.44 1013.65 1014.09 1014.45 1014.58 1014.66 1014.78 1014.85 1014.80 1014.72 1014.68 1014.65 1014.52 1014.28 1014.03 1013.85 1013.92 1014.15 1014.29 1014.47 1014.65 1014.79 1014.86 1014.80 1014.80 1014.85 1014.84
1009.65 1008.36 1007.34 1006.68 1006.56 1006.74 1006.77 1007.39 1007.11 1006.79 1006.93 1007.40 1008.73 1009.00 1009.81 1010.93 1011.62 1012.36 1012.52 1012.75 1013.06 1013.17 1013.41 1013.70 1013.79 1013.93 1014.47 1014.60 1014.85 1014.84 1014.76 1014.72 1014.62 1014.44 1014.21 1013.99 1013.73 1013.43 1013.35 1013.48 1013.84 1013.99 1014.26 1014.50 1014.66 1014.60 1014.66 1014.69 1014.86
1009.29 1008.73 1007.41 1007.04 1006.51 1006.30 1006.84 1007.19 1007.24 1007.24 1007.22 1008.47 1009.09 1008.61 1008.98 1010.26 1011.67 1012.27 1012.37 1012.52 1012.78 1013.03 1013.07 1013.41 1013.62 1013.67 1013.88 1013.85 1014.28 1014.61 1014.55 1014.46 1014.31 1014.10 1013.89 1013.77 1013.47 1013.16 1012.80 1013.06 1013.43 1013.57 1013.93 1014.25 1014.37 1014.45 1014.50 1014.61 1014.73
1009.51 1008.52 1006.92 1006.48 1006.54 1006.02 1006.26 1006.77 1007.12 1007.69 1007.62 1008.56 1008.97 1009.26 1009.92 1010.89 1011.50 1011.82 1011.93 1012.04 1012.23 1012.60 1012.87 1013.22 1013.49 1013.57 1013.89 1013.82 1013.80 1014.24 1014.07 1014.08 1013.96 1013.76 1013.61 1013.57 1012.80 1012.05 1012.03 1012.45 1012.92 1013.35 1013.69 1013.94 1014.14 1014.20 1014.30 1014.41 1014.59
1008.78 1007.69 1006.76 1006.60 1006.52 1006.24 1006.01 1006.23 1006.56 1007.51 1007.58 1008.22 1009.13 1009.85 1010.77 1010.95 1011.12 1011.22 1011.38 1011.35 1011.88 1012.26 1012.61 1013.03 1013.71 1013.90 1013.87 1013.59 1013.60 1013.65 1013.53 1013.70 1013.87 1013.61 1013.47 1013.23 1012.67 1012.20 1012.07 1012.29 1012.74 1013.15 1013.39 1013.74 1013.84 1013.90 1014.07 1014.26 1013.97
1008.03 1007.40 1006.92 1006.58 1006.36 1006.13 1005.96 1005.93 1006.51 1006.75 1006.41 1006.99 1007.66 1008.29 1010.18 1010.45 1010.76 1010.95 1011.06 1011.56 1012.00 1012.41 1012.64 1012.86 1013.63 1013.81 1013.79 1013.31 1013.25 1012.98 1013.41 1013.15 1013.19 1013.20 1012.99 1012.90 1012.76 1012.06 1012.04 1011.59 1011.92 1012.43 1012.84 1013.00 1013.23 1013.09 1013.32 1013.23 1013.65
1007.66 1007.28 1007.02 1006.55 1006.40 1006.34 1006.04 1006.12 1006.31 1006.52 1006.09 1007.13 1007.31 1008.01 1009.23 1009.77 1010.22 1010.73 1011.11 1011.58 1011.90 1012.34 1012.62 1013.01 1013.30 1013.61 1013.65 1013.55 1012.97 1012.98 1013.09 1012.56 1012.66 1012.20 1012.62 1012.22 1011.74 1011.52 1011.96 1011.88 1011.19 1011.43 1011.82 1012.45 1012.97 1012.29 1012.60 1013.38 1013.33
1006.99 1006.67 1006.48 1006.35 1006.36 1006.29 1006.39 1006.27 1006.20 1005.95 1006.40 1007.36 1007.55 1008.09 1008.69 1009.37 1010.11 1010.90 1011.41 1011.87 1012.24 1012.31 1012.61 1012.98 1013.28 1013.40 1013.55 1013.50 1012.79 1012.82 1012.72 1012.18 1012.06 1012.27 1012.26 1011.90 1011.67 1011.99 1011.71 1011.37 1011.38 1011.11 1011.50 1012.26 1012.51 1012.37 1012.63 1013.13 1013.22
1006.31 1006.34 1006.11 1006.13 1005.96 1006.22 1006.22 1005.99 1006.65 1005.65 1006.32 1007.17 1007.67 1007.80 1008.40 1009.15 1010.05 1010.92 1011.50 1011.78 1012.22 1012.45 1012.68 1013.03 1013.09 1013.19 1013.16 1012.96 1012.81 1012.70 1012.25 1012.12 1011.69 1012.07 1011.87 1011.68 1011.84 1011.92 1011.58 1011.10 1011.48 1011.59 1011.32 1011.42 1011.60 1011.84 1012.41 1012.73 1012.71
1006.26 1006.29 1005.85 1005.85 1005.81 1005.82 1006.24 1005.93 1005.95 1005.60 1006.40 1006.76 1007.38 1007.58 1008.11 1009.12 1010.05 1010.68 1011.23 1011.79 1012.11 1012.28 1012.80 1012.87 1012.94 1012.92 1012.82 1012.59 1012.30 1012.12 1011.82 1011.94 1011.51 1011.29 1011.38 1011.36 1011.33 1011.42 1011.56 1011.19 1010.92 1010.62 1011.05 1011.42 1011.63 1012.16 1012.28 1012.61 1012.50
1005.77 1005.58 1004.85 1004.35 1005.72 1006.03 1006.31 1005.33 1005.28 1005.39 1006.13 1006.09 1006.52 1007.15 1007.97 1009.04 1009.81 1010.60 1011.24 1011.74 1011.99 1012.24 1012.57 1012.73 1012.71 1012.52 1012.35 1012.22 1011.95 1011.62 1011.39 1011.56 1011.74 1011.63 1011.19 1010.86 1010.96 1010.94 1010.98 1011.14 1011.12 1011.14 1011.26 1011.33 1011.16 1011.40 1011.80 1011.99 1012.61
1004.67 1004.48 1003.92 1004.08 1004.91 1005.15 1005.56 1004.73 1004.45 1004.97 1005.46 1005.48 1005.78 1006.61 1007.52 1008.60 1009.67 1010.47 1011.12 1011.56 1011.76 1012.07 1012.44 1012.45 1012.52 1012.30 1012.16 1011.90 1011.62 1011.39 1011.35 1011.22 1011.23 1011.39 1011.31 1010.83 1010.57 1010.41 1010.52 1010.69 1010.71 1010.89 1011.00 1011.25 1011.07 1010.99 1011.31 1011.81 1012.29
1003.70 1003.90 1003.83 1004.25 1004.44 1004.99 1004.52 1004.30 1004.19 1004.37 1004.34 1004.87 1005.30 1006.00 1007.01 1007.99 1009.08 1010.13 1010.87 1011.27 1011.56 1011.90 1012.28 1012.36 1012.27 1012.18 1012.15 1011.49 1011.23 1011.31 1011.30 1011.27 1011.36 1011.59 1011.47 1011.07 1010.64 1010.31 1010.13 1010.45 1010.51 1010.67 1010.81 1011.16 1011.45 1011.16 1011.21 1011.55 1012.15
1003.58 1004.00 1003.85 1003.91 1004.38 1004.76 1004.19 1003.56 1003.58 1003.61 1003.53 1003.76 1004.39 1005.29 1006.39 1007.45 1008.59 1009.84 1010.61 1011.11 1011.40 1011.71 1011.95 1012.00 1012.04 1012.01 1012.02 1011.22 1010.76 1010.85 1010.99 1011.31 1011.37 1011.40 1011.28 1011.07 1010.39 1010.15 1010.28 1010.24 1010.64 1010.77 1010.84 1011.07 1011.35 1011.55 1011.66 1011.93 1012.50
1004.04 1003.80 1003.81 1003.91 1004.54 1004.73 1003.99 1003.25 1003.07 1002.84 1002.59 1002.81 1003.50 1004.48 1005.70 1007.00 1008.28 1009.52 1010.27 1010.85 1011.11 1011.42 1011.68 1011.79 1011.76 1011.81 1011.84 1011.21 1011.27 1011.32 1011.16 1011.24 1011.57 1011.44 1011.25 1010.75 1010.51 1010.01 1010.28 1010.38 1010.50 1010.63 1011.08 1011.26 1011.42 1011.55 1011.69 1012.08 1012.70
1003.58 1003.45 1003.63 1003.99 1004.24 1004.47 1003.76 1002.92 1001.93 1002.07 1001.93 1002.23 1003.15 1003.76 1004.88 1006.10 1007.58 1008.84 1009.72 1010.36 1010.65 1011.13 1011.43 1011.52 1011.62 1011.61 1011.76 1011.49 1011.38 1011.54 1011.42 1011.34 1011.36 1011.43 1011.15 1010.74 1010.53 1010.32 1010.22 1010.33 1010.23 1010.55 1010.58 1010.89 1011.22 1011.34 1011.49 1011.97 1013.16
1002.64 1003.37 1003.95 1004.08 1004.32 1003.55 1003.70 1002.23 1001.69 1001.28 1000.97 1001.20 1002.13 1003.12 1004.05 1005.48 1007.04 1008.13 1009.09 1009.93 1010.28 1010.73 1011.21 1011.35 1011.50 1011.51 1011.53 1011.43 1011.17 1011.38 1011.28 1010.83 1011.18 1011.35 1011.31 1011.07 1010.52 1010.60 1010.52 1010.28 1010.38 1010.52 1010.46 1011.16 1011.48 1011.60 1011.69 1012.05 1013.15
1002.47 1002.96 1003.71 1004.01 1003.98 1003.86 1003.22 1002.34 1001.05 1000.58 1000.60 1000.39 1000.69 1001.81 1003.37 1004.84 1006.37 1007.45 1008.48 1009.36 1009.89 1010.58 1010.95 1011.14 1011.31 1011.39 1011.58 1011.53 1011.55 1011.05 1011.03 1011.32 1011.24 1011.11 1011.29 1011.00 1010.79 1010.68 1010.53 1010.56 1010.70 1010.80 1011.04 1011.25 1011.47 1011.88 1011.89 1012.38 1013.61
1002.81 1003.46 1003.91 1004.15 1003.94 1003.22 1002.32 1001.77 1000.49 999.95 1000.14 1000.08 1000.39 1001.44 1002.88 1004.49 1006.06 1007.19 1008.37 1009.06 1009.61 1010.28 1010.75 1011.02 1011.07 1011.33 1011.49 1011.47 1011.57 1011.67 1011.82 1011.69 1011.57 1011.32 1011.33 1011.26 1011.18 1011.07 1010.89 1010.96 1011.05 1011.00 1011.00 1011.24 1011.54 1011.94 1012.44 1012.99 1013.66
1002.34 1002.82 1002.76 1002.86 1002.59 1002.09 1002.14 1001.79 1000.37 1000.00 999.99 1000.03 1000.37 1001.11 1002.82 1004.23 1005.59 1006.79 1007.91 1008.68 1009.32 1009.89 1010.53 1010.82 1010.89 1011.16 1011.39 1011.43 1011.58 1011.72 1011.63 1011.76 1011.76 1011.81 1011.88 1011.82 1011.75 1011.48 1011.47 1011.46 1011.39 1011.40 1011.47 1011.69 1012.03 1012.31 1012.77 1013.34 1013.92
1001.30 1001.65 1001.35 1001.26 1001.51 1001.27 1002.04 1001.02 999.65 999.74 999.96 1000.34 1000.85 1001.49 1002.71 1004.08 1005.27 1006.38 1007.45 1008.35 1008.98 1009.57 1010.27 1010.62 1010.77 1011.01 1011.26 1011.35 1011.66 1011.75 1011.68 1011.30 1011.95 1011.84 1012.02 1012.03 1011.97 1012.24 1012.04 1012.02 1011.84 1011.87 1011.89 1012.25 1012.25 1012.86 1013.46 1014.04 1014.60
1000.22 1000.85 1001.30 1001.35 1001.34 1001.64 1000.89 1000.28 999.97 999.61 999.42 1000.00 1000.84 1001.89 1002.94 1004.06 1005.12 1006.10 1007.15 1008.06 1008.67 1009.33 1009.99 1010.50 1010.66 1010.93 1011.20 1011.42 1011.75 1011.80 1011.79 1011.76 1011.80 1012.05 1011.88 1012.10 1012.26 1012.38 1012.28 1012.38 1012.44 1012.49 1012.47 1012.83 1012.91 1013.20 1013.83 1014.65 1015.66
999.26 1000.68 1001.13 1001.26 1000.81 1000.51 1000.07 999.86 998.96 998.95 999.00 999.85 1000.77 1001.85 1003.09 1003.96 1004.89 1005.83 1006.81 1007.77 1008.44 1009.13 1009.80 1010.37 1010.58 1010.76 1011.10 1011.38 1011.64 1011.74 1011.82 1011.80 1011.83 1011.96 1012.09 1012.14 1012.18 1012.45 1012.58 1012.70 1012.86 1012.95 1013.08 1013.28 1013.53 1013.93 1014.45 1015.21 1015.82
999.07 999.47 1000.05 1000.21 1000.22 999.87 999.64 998.93 998.76 998.87 999.09 999.44 1000.19 1001.51 1002.79 1003.62 1004.45 1005.34 1006.36 1007.49 1008.17 1008.85 1009.43 1010.10 1010.33 1010.65 1010.99 1011.28 1011.64 1011.86 1011.91 1011.93 1012.04 1012.02 1012.09 1012.38 1012.67 1012.60 1012.91 1013.28 1013.42 1013.64 1013.74 1013.98 1013.94 1014.20 1014.92 1015.45 1016.06
998.12 998.70 999.42 999.57 1000.01 1000.12 999.47 998.37 998.49 998.77 999.00 999.48 1000.04 1001.12 1002.11 1002.98 1004.12 1005.04 1005.87 1007.01 1007.72 1008.45 1009.04 1009.76 1010.04 1010.28 1010.71 1011.08 1011.51 1011.89 1012.09 1012.10 1012.23 1012.29 1012.39 1012.46 1012.74 1013.08 1013.28 1013.71 1013.97 1014.20 1014.38 1014.52 1014.64 1014.72 1014.95 1015.08 1015.73
Wind_Speed
12 12 5 7 8 6 8 3 5 6 4 3 5 4 4 5 5 7 4 4 4 2 7 9 12 13 13 13 14 13 11 12 12 12 11 11 11 14 14 13 12 12 11 10 11 10 9 8 8
10 9 6 4 9 8 2 4 6 7 4 5 5 5 5 3 1 1 4 7 4 1 4 7 14 14 15 15 14 11 11 12 13 13 13 13 13 14 15 14 14 13 12 12 12 11 11 9 8
10 10 10 5 6 9 6 4 5 3 6 7 4 4 1 2 4 1 5 5 5 4 4 6 3 12 15 15 13 12 13 13 14 16 16 17 17 16 16 15 15 14 13 13 13 12 12 10 10
7 7 6 11 9 2 7 9 6 5 5 7 5 5 3 2 5 3 3 4 4 5 4 3 1 9 12 12 12 12 13 13 14 17 19 19 20 18 18 17 15 14 13 13 12 12 14 13 11
8 6 10 9 8 4 7 9 8 9 6 4 5 2 2 4 3 5 3 3 5 6 5 7 3 6 9 10 13 13 13 13 15 18 20 21 20 20 19 19 17 16 13 12 12 12 11 13 10
8 5 10 12 3 3 7 6 7 8 6 5 5 4 2 4 8 4 3 1 2 3 2 4 4 1 5 8 10 10 10 12 13 15 17 19 21 20 20 19 19 17 15 13 13 13 11 12 11
13 8 14 12 11 9 4 5 8 7 7 7 1 6 3 8 5 5 4 3 3 1 3 4 6 5 7 3 5 9 11 12 14 15 16 18 17 18 20 18 20 18 15 14 14 14 12 9 11
8 8 16 12 12 10 3 3 5 8 8 6 5 6 4 7 9 7 6 5 4 3 6 6 6 9 7 8 6 9 12 13 13 15 15 14 15 17 17 15 18 19 12 13 14 14 11 9 9
6 12 12 12 13 12 4 11 5 2 8 7 8 6 3 7 10 9 7 6 3 4 6 7 9 7 7 9 8 8 10 11 12 12 11 10 11 9 9 11 15 16 16 14 13 12 11 10 10
11 12 15 8 11 14 16 9 13 7 8 10 9 5 5 10 10 10 8 6 3 5 7 6 6 8 8 8 7 8 7 6 7 8 7 8 9 9 7 8 9 14 14 14 12 12 11 11 9
14 15 14 14 14 16 18 13 9 11 13 10 9 11 11 11 10 9 6 3 5 5 6 7 5 6 7 8 7 5 4 5 5 7 7 6 6 5 7 7 8 10 14 9 12 12 10 11 9
15 16 16 15 12 12 8 7 9 13 13 5 5 4 13 14 12 9 6 3 3 6 7 6 6 6 6 6 7 5 5 5 5 4 5 5 5 4 4 6 8 8 8 10 8 6 5 10 13
15 17 14 13 11 9 3 9 9 10 7 6 6 10 14 12 10 6 4 1 3 6 7 7 6 6 6 7 5 6 5 5 6 4 6 5 5 5 5 5 6 8 9 9 9 7 8 10 11
12 11 13 12 11 6 8 4 5 7 2 9 10 12 13 12 11 8 6 2 3 4 5 6 6 5 6 6 6 6 5 5 4 4 7 6 4 5 5 5 6 7 9 10 7 8 9 9 10
11 15 14 13 11 6 6 10 10 9 5 9 13 11 12 11 10 9 5 3 2 3 3 6 6 5 6 7 6 5 5 5 5 5 5 7 6 5 4 3 5 8 6 7 7 8 8 9 7
14 15 15 12 9 6 6 9 9 7 9 13 13 13 12 12 12 8 6 4 2 2 4 5 5 7 6 7 6 6 5 4 4 5 7 7 7 8 5 6 6 6 7 8 9 10 10 10 9
16 15 19 9 10 5 11 13 7 7 10 13 12 14 13 13 12 9 8 6 2 0 3 6 6 7 7 7 7 6 5 4 3 2 5 7 7 8 7 5 7 9 8 8 7 9 9 9 9
16 14 11 12 9 10 12 14 14 13 14 12 13 14 14 14 14 12 10 6 3 1 1 5 6 6 8 6 4 4 4 3 4 2 3 7 6 6 6 6 7 8 7 7 9 8 9 10 9
13 12 14 12 7 10 16 14 15 15 17 13 13 14 15 15 13 12 10 7 5 3 3 5 5 6 6 6 7 6 6 6 3 1 3 6 7 4 5 6 7 7 8 9 10 8 10 7 8
15 17 17 11 10 9 15 17 19 16 16 13 13 14 16 15 15 13 12 9 6 2 2 5 4 5 5 5 5 5 4 4 2 3 4 5 1 4 5 7 8 8 7 8 10 11 8 7 10
19 17 15 12 12 12 16 17 12 8 9 10 11 11 14 17 17 16 14 10 7 5 4 1 4 5 5 6 6 4 2 1 3 3 4 3 2 4 5 7 8 9 8 8 10 10 11 11 8
20 16 15 13 13 12 4 14 14 10 11 11 11 12 13 16 17 16 15 12 9 6 5 2 3 4 5 7 6 7 4 3 3 3 4 2 6 4 3 6 8 8 6 8 9 8 9 12 9
16 13 13 15 12 12 16 8 10 6 9 7 6 11 12 15 18 17 16 13 10 8 6 3 1 4 5 7 8 7 6 4 3 2 4 5 7 8 6 6 8 8 7 9 12 12 11 11 6
15 8 9 8 11 12 15 10 9 3 4 5 5 3 9 14 17 16 14 13 11 9 7 4 3 4 4 6 7 8 8 8 5 4 4 4 5 5 7 8 5 7 8 11 10 12 14 12 10
17 13 10 11 10 11 3 7 10 10 8 9 9 5 9 15 18 17 17 14 12 11 8 6 4 5 4 5 6 7 7 5 3 4 3 3 4 8 7 6 8 6 8 10 12 12 14 13 10
20 17 11 11 11 10 6 7 4 2 5 6 4 4 10 16 17 18 17 13 13 12 10 7 5 6 5 6 6 6 8 6 5 6 5 4 7 4 7 6 9 9 9 10 12 9 8 11 8
14 16 16 15 13 8 11 5 11 7 7 4 2 5 12 16 18 18 17 14 12 12 11 8 6 6 6 6 5 5 6 6 5 7 7 6 6 4 6 6 6 9 11 8 11 8 11 11 11
20 15 11 10 14 13 9 7 7 3 5 4 7 8 13 16 18 17 15 14 12 12 10 9 7 6 7 6 4 5 6 6 6 5 7 7 4 6 6 8 6 7 10 11 11 9 11 13 10
13 17 14 13 13 12 9 6 5 4 3 3 7 11 15 17 18 18 16 14 14 13 11 9 8 7 7 6 5 5 5 6 6 6 7 9 7 6 7 7 6 6 7 7 9 11 8 10 10
22 22 20 12 15 10 11 10 4 5 1 2 8 13 17 18 17 17 16 16 15 13 12 10 8 7 8 7 6 6 6 6 6 7 8 9 10 9 9 8 6 4 4 3 5 8 6 12 9
Wind_Direction
159 174 189 219 237 238 250 153 337 275 211 98 125 218 295 335 311 340 84 160 157 131 193 186 207 218 224 231 236 237 239 245 244 245 245 256 271 282 284 280 275 269 267 259 238 228 244 244 261
164 173 223 268 254 239 153 36 309 2 83 161 173 190 232 305 210 193 216 159 196 193 197 233 183 216 226 232 240 251 257 258 252 252 255 258 263 264 271 274 269 259 257 257 253 237 229 240 249
176 238 267 252 258 267 335 3 318 8 174 202 205 280 26 96 150 96 91 157 205 232 220 236 235 223 231 238 249 248 254 260 256 259 261 263 263 259 257 262 265 259 252 249 253 245 222 231 241
196 201 222 254 254 66 297 322 322 276 196 220 253 241 152 91 147 144 137 186 233 252 271 145 251 260 260 259 271 273 273 276 270 272 271 273 270 267 261 251 254 255 256 262 261 253 241 219 229
226 254 263 250 262 290 285 299 296 261 238 198 214 269 285 179 144 161 167 202 257 273 292 271 147 260 268 271 271 279 285 291 288 284 279 277 274 270 259 250 241 241 242 249 265 272 249 238 217
240 274 253 254 248 276 310 318 278 255 252 119 228 266 284 113 187 167 177 190 306 296 274 286 158 269 323 325 329 335 328 308 296 293 289 286 284 268 262 244 237 233 235 242 254 264 263 238 229
255 259 269 291 281 284 7 339 260 277 260 227 289 257 47 195 163 180 165 166 189 165 248 268 290 294 249 282 323 321 313 304 300 294 290 282 281 280 259 243 233 229 229 233 242 259 270 240 231
264 275 268 259 276 300 15 275 293 259 274 80 190 251 246 178 172 176 200 188 202 212 287 284 264 291 301 300 298 315 306 302 299 292 289 292 290 271 262 242 230 224 233 234 233 249 265 236 218
249 259 259 267 278 292 283 278 157 304 244 220 194 263 49 153 168 191 205 220 265 282 286 292 301 313 296 292 293 286 277 297 286 271 268 273 262 273 246 226 228 222 227 231 241 239 257 242 219
228 249 261 285 293 286 293 276 293 222 214 226 221 195 190 176 184 207 215 239 268 304 317 318 317 309 297 283 287 279 289 303 299 287 290 282 279 275 301 285 229 231 237 235 238 241 243 229 212
223 253 277 273 273 294 288 286 261 253 261 245 241 206 199 194 199 221 231 303 325 326 298 334 318 303 294 307 311 293 320 282 281 268 276 276 273 289 266 234 214 218 213 224 217 214 223 217 200
241 248 260 272 294 290 277 270 247 242 269 4 231 218 191 199 201 210 216 230 306 326 320 328 327 299 297 308 298 320 267 308 271 307 285 258 260 260 250 242 235 207 217 214 225 237 223 203 202
229 263 261 271 271 255 264 243 273 265 280 222 226 193 200 201 199 192 193 193 306 316 345 332 323 307 299 294 298 295 291 296 327 279 276 259 284 298 260 243 231 231 185 199 206 218 196 191 187
245 261 273 263 252 209 237 228 246 287 251 220 214 208 204 201 194 186 189 194 281 331 339 334 320 305 291 288 288 295 276 290 285 297 266 267 260 272 260 191 189 195 198 181 190 196 176 177 187
254 257 243 235 220 227 244 243 252 280 194 236 226 217 206 199 192 200 181 182 283 325 335 338 309 301 292 295 288 291 287 279 287 279 256 258 258 247 221 206 202 173 143 154 177 175 173 177 191
229 237 252 190 201 156 225 272 265 285 215 233 223 217 204 198 194 188 181 187 224 306 333 340 316 307 312 305 291 294 311 297 273 267 268 239 245 256 228 197 182 168 169 179 173 175 173 174 173
227 250 231 237 197 190 216 280 286 299 255 260 235 221 209 195 196 185 187 189 188 208 333 330 326 317 332 305 300 303 295 274 263 288 295 277 255 244 234 223 173 176 174 174 182 169 168 152 183
230 222 243 258 186 227 255 258 271 276 252 256 253 228 215 205 197 185 190 183 179 192 267 302 303 319 336 303 290 345 329 333 8 41 325 323 287 254 232 210 175 168 176 165 166 181 173 167 172
265 257 257 256 273 263 276 286 287 282 274 256 254 224 216 207 190 180 182 182 184 203 250 283 320 339 343 335 343 354 9 23 36 2 314 292 268 227 219 176 170 194 179 174 169 170 166 158 168
232 242 248 254 268 281 288 286 293 291 271 264 245 221 212 198 187 181 180 185 187 182 233 271 312 345 343 339 353 345 15 24 16 331 345 338 284 195 176 176 173 184 152 176 171 175 158 155 160
228 241 248 260 294 268 262 272 289 288 244 247 244 230 205 198 188 182 182 184 176 179 193 263 346 349 5 347 46 24 134 100 88 32 28 20 247 226 204 185 177 175 184 176 184 173 166 156 154
232 221 258 258 267 281 350 294 293 271 268 232 224 215 205 195 188 180 179 178 175 164 171 169 21 19 61 22 44 23 42 38 14 35 94 26 85 75 79 179 184 176 198 166 182 171 182 148 141
241 236 232 254 268 283 265 252 291 262 278 267 243 203 199 189 185 179 176 175 172 156 170 161 82 66 58 56 29 2 21 49 351 66 54 70 71 116 136 135 140 158 158 164 169 164 165 139 128
225 203 225 244 256 250 257 260 278 284 312 296 268 71 181 179 182 174 172 168 168 161 162 164 110 87 77 56 46 30 45 34 15 354 69 19 45 59 76 118 107 130 139 152 153 143 141 139 127
221 211 223 217 217 249 141 251 258 309 299 299 294 308 169 172 175 171 172 175 172 164 166 173 141 103 81 56 57 42 54 61 48 33 49 61 58 60 48 94 120 111 113 133 136 146 139 131 123
201 208 236 225 243 249 155 254 223 338 316 292 306 315 152 170 171 172 173 176 175 169 167 175 139 125 104 80 62 56 32 58 68 59 101 98 85 55 43 71 104 98 112 123 136 134 123 124 105
181 219 227 256 269 272 275 201 252 254 245 216 200 142 157 168 169 172 171 177 175 172 169 178 148 125 111 93 83 72 57 38 64 77 82 63 70 74 62 87 118 100 112 127 128 119 120 108 115
223 201 200 222 242 238 239 236 262 254 15 97 172 154 162 167 168 171 172 175 176 171 166 179 174 141 126 107 92 79 78 51 50 72 74 70 80 89 55 72 81 99 91 93 108 111 117 115 128
186 221 214 253 225 232 246 256 90 283 25 6 158 160 165 173 174 170 172 174 175 171 168 180 172 156 140 128 113 94 88 69 71 64 67 82 88 109 100 69 66 56 74 79 95 103 110 114 136
200 213 205 222 211 247 279 263 119 261 281 266 162 165 172 172 175 174 170 173 174 175 172 177 172 166 146 137 129 108 104 94 78 73 77 88 108 118 119 109 103 97 82 83 94 125 138 130 144